CW6421 Weather Reports


time (UTC)temp
C
wind
direction
speed
KPH
gust
KPH
rain 1hr
cm
rain 24hr
cm
rain mn
cm
humidity
%
barometer
mb
20200227123044 6 238 19.3 38.6 0.00 0.00 0.00 77 1001.0
20200227122038 6 264 19.3 38.6 0.00 0.00 0.00 78 1001.2
20200227121051 5 261 19.3 35.4 0.00 0.00 0.00 80 1001.3
20200227120055 5 265 19.3 35.4 0.00 0.00 0.00 78 1001.3
20200227115036 5 247 20.9 40.2 0.00 0.00 0.00 76 1001.5
20200227114043 5 254 22.5 40.2 0.00 0.00 0.00 77 1001.7
20200227113053 5 257 19.3 30.6 0.00 0.00 0.00 77 1001.9
20200227112035 5 269 24.1 32.2 0.00 0.00 0.00 78 1002.0
20200227111038 5 263 22.5 29.0 0.00 0.00 0.00 79 1002.1
20200227110101 5 266 25.7 32.2 0.00 0.00 0.00 80 1002.2
20200227105055 5 250 20.9 29.0 0.00 0.00 0.00 81 1002.3
20200227104037 5 254 22.5 32.2 0.00 0.03 0.00 82 1002.3
20200227103055 5 258 22.5 27.4 0.00 0.05 0.00 84 1002.4
20200227102038 4 237 24.1 32.2 0.00 0.08 0.00 85 1002.4
20200227101055 4 235 20.9 29.0 0.00 0.10 0.00 87 1002.5
20200227094037 3 258 20.9 29.0 0.00 0.13 0.00 89 1002.7
20200227092043 3 241 19.3 30.6 0.00 0.13 0.00 91 1002.8
20200227091041 3 253 20.9 29.0 0.00 0.15 0.00 91 1002.9
20200227090053 3 244 22.5 30.6 0.00 0.15 0.00 91 1002.9
20200227085035 3 250 19.3 33.8 0.00 0.15 0.00 91 1003.0
20200227084103 3 244 19.3 33.8 0.00 0.15 0.00 92 1003.0
20200227083113 3 237 19.3 24.1 0.00 0.15 0.00 91 1003.1
20200227082040 3 250 19.3 19.3 0.00 0.15 0.00 92 1003.1
20200227081042 2 247 17.7 22.5 0.00 0.15 0.00 92 1003.2
20200227080109 2 240 20.9 20.9 0.00 0.15 0.00 92 1003.0
20200227075038 2 240 20.9 25.7 0.00 0.15 0.00 92 1003.0
20200227074037 2 249 19.3 22.5 0.00 0.15 0.00 92 1002.9
20200227073046 2 236 22.5 25.7 0.00 0.15 0.00 91 1002.9
20200227072036 2 243 16.1 22.5 0.00 0.15 0.00 91 1002.8
20200227071055 2 258 16.1 22.5 0.00 0.15 0.00 92 1002.8
20200227070050 2 252 16.1 20.9 0.00 0.15 0.00 92 1002.8
20200227065037 2 246 16.1 20.9 0.00 0.15 0.00 91 1002.8
20200227064036 2 253 16.1 24.1 0.00 0.15 0.00 91 1002.7
20200227063043 2 251 16.1 20.9 0.00 0.15 0.00 91 1002.7
20200227062039 2 247 14.5 17.7 0.00 0.15 0.00 91 1002.6
20200227061052 2 258 12.9 19.3 0.00 0.15 0.00 91 1002.6
20200227060116 2 256 12.9 16.1 0.00 0.15 0.00 91 1002.6
20200227055048 2 265 11.3 17.7 0.00 0.15 0.00 91 1002.6
20200227054040 2 265 11.3 12.9 0.00 0.15 0.00 91 1002.6
20200227053052 2 269 12.9 24.1 0.00 0.15 0.00 91 1002.9
20200227052037 2 269 12.9 25.7 0.00 0.15 0.00 91 1002.4
20200227051048 2 257 12.9 24.1 0.00 0.15 0.00 91 1002.4
20200227050050 2 263 12.9 27.4 0.00 0.15 0.00 91 1002.3
20200227043045 2 277 11.3 22.5 0.00 0.15 0.00 91 1002.3
20200227042038 2 298 11.3 20.9 0.00 0.15 0.00 91 1002.2
20200227041038 2 298 11.3 25.7 0.00 0.15 0.00 91 1002.1
20200227040053 2 282 11.3 22.5 0.00 0.15 0.00 91 1001.9
20200227035036 3 276 14.5 24.1 0.00 0.15 0.00 91 1001.9
20200227034035 3 276 16.1 24.1 0.00 0.15 0.00 91 1001.9
20200227033047 2 280 16.1 24.1 0.00 0.15 0.00 90 1001.8
20200227032036 3 264 16.1 20.9 0.00 0.15 0.00 90 1001.8
20200227031037 2 257 16.1 25.7 0.00 0.15 0.00 90 1001.7
20200227030054 3 253 16.1 24.1 0.00 0.15 0.00 90 1001.7
20200227025037 3 265 17.7 25.7 0.00 0.15 0.00 91 1001.6
20200227024033 3 267 16.1 24.1 0.00 0.15 0.00 91 1001.6
20200227023043 3 267 17.7 25.7 0.00 0.15 0.00 91 1001.6
20200227022036 3 260 14.5 27.4 0.00 0.15 0.00 91 1001.5
20200227021041 3 273 12.9 25.7 0.00 0.15 0.00 91 1001.5
20200227020048 3 269 14.5 25.7 0.00 0.15 0.00 91 1001.5
20200227015034 3 273 17.7 24.1 0.00 0.15 0.00 91 1001.4
20200227014036 3 273 17.7 25.7 0.00 0.15 0.00 91 1001.4
20200227013042 3 275 17.7 25.7 0.00 0.15 0.00 91 1001.4
20200227012038 3 259 17.7 24.1 0.00 0.15 0.00 91 1001.3
20200227011036 3 254 16.1 27.4 0.00 0.15 0.00 91 1001.2
20200227010053 3 259 16.1 25.7 0.00 0.15 0.00 91 1001.1
20200227005036 3 264 17.7 24.1 0.00 0.15 0.00 91 1001.0
20200227004036 3 279 14.5 25.7 0.00 0.15 0.00 91 1000.9
20200227003045 3 268 14.5 32.2 0.00 0.15 0.00 91 1000.8
20200227002034 3 265 14.5 29.0 0.00 0.15 0.00 91 1000.7
20200227001037 3 266 17.7 33.8 0.00 0.15 0.00 91 1000.6
20200227000106 3 258 17.7 29.0 0.00 0.15 0.00 91 1000.5
20200226235035 3 280 16.1 32.2 0.00 0.15 0.00 91 1000.4
20200226234035 3 269 17.7 32.2 0.00 0.15 0.00 91 1000.3
20200226233049 3 280 17.7 27.4 0.00 0.15 0.00 91 1000.2
20200226232037 3 265 16.1 29.0 0.00 0.15 0.00 91 1000.2
20200226231045 3 270 16.1 29.0 0.00 0.15 0.00 91 1000.1
20200226230056 3 262 16.1 32.2 0.00 0.15 0.00 91 1000.1
20200226225037 3 269 20.9 32.2 0.00 0.15 0.00 91 999.9
20200226224037 3 267 19.3 27.4 0.00 0.15 0.00 91 1000.0
20200226223054 3 261 19.3 24.1 0.00 0.15 0.00 91 999.9
20200226222055 3 268 17.7 29.0 0.00 0.15 0.00 92 999.7
20200226221036 3 266 17.7 25.7 0.00 0.15 0.00 92 999.6
20200226220050 3 266 19.3 24.1 0.00 0.15 0.00 92 999.4
20200226215040 3 257 20.9 27.4 0.00 0.15 0.00 92 999.4
20200226214040 3 270 20.9 29.0 0.00 0.15 0.00 92 999.3
20200226213051 2 257 22.5 25.7 0.00 0.15 0.00 92 999.2
20200226212207 3 262 19.3 25.7 0.00 0.15 0.00 91 999.3
20200226211037 3 260 19.3 22.5 0.00 0.15 0.00 91 999.0
20200226210112 3 253 19.3 25.7 0.00 0.15 0.00 91 998.9
20200226205038 3 264 17.7 25.7 0.00 0.15 0.00 92 998.7
20200226204037 3 251 16.1 27.4 0.00 0.15 0.00 92 998.6
20200226203046 3 264 16.1 32.2 0.00 0.15 0.00 92 998.5
20200226202036 3 271 19.3 33.8 0.00 0.15 0.00 91 998.4
20200226201039 3 261 19.3 32.2 0.00 0.15 0.00 91 998.3
20200226200056 3 272 17.7 33.8 0.00 0.15 0.00 91 998.2
20200226195043 3 267 9.7 32.2 0.00 0.15 0.00 92 998.1
20200226194037 3 258 9.7 30.6 0.00 0.15 0.00 91 998.0
20200226193052 3 251 8.0 30.6 0.00 0.15 0.00 91 997.9
20200226182040 3 267 12.9 25.7 0.00 0.15 0.00 90 997.2
20200226181047 3 255 16.1 24.1 0.00 0.15 0.00 90 997.0
20200226180054 3 268 14.5 22.5 0.00 0.15 0.00 90 996.9
20200226175039 3 264 12.9 22.5 0.00 0.15 0.00 90 996.8
20200226174040 3 269 12.9 22.5 0.00 0.15 0.00 91 996.7
20200226173050 3 266 14.5 19.3 0.00 0.15 0.00 91 996.6
20200226172039 4 250 17.7 17.7 0.00 0.15 0.00 91 996.4
20200226171039 4 233 20.9 24.1 0.00 0.15 0.00 91 996.2
20200226170049 4 239 19.3 22.5 0.00 0.15 0.00 90 996.3
20200226165039 4 252 16.1 17.7 0.00 0.15 0.00 90 995.8
20200226164037 4 258 14.5 17.7 0.00 0.15 0.00 90 995.7
20200226163048 4 250 16.1 20.9 0.00 0.15 0.00 90 995.5
20200226162037 4 249 12.9 19.3 0.00 0.15 0.00 90 995.4
20200226161048 4 237 12.9 20.9 0.00 0.15 0.00 89 995.4
20200226160053 4 230 12.9 19.3 0.00 0.15 0.00 89 995.2
20200226155037 4 233 12.9 19.3 0.00 0.15 0.00 89 995.1
20200226153056 4 247 12.9 22.5 0.00 0.15 0.00 89 994.8
20200226152035 5 257 12.9 22.5 0.00 0.15 0.00 89 994.8
20200226151037 5 255 12.9 20.9 0.00 0.15 0.00 89 994.7
20200226150106 4 266 12.9 20.9 0.00 0.15 0.00 89 994.6
20200226145044 4 271 11.3 20.9 0.00 0.15 0.00 89 994.5
20200226144037 4 274 11.3 22.5 0.00 0.15 0.00 89 994.5
20200226143055 4 261 9.7 19.3 0.00 0.15 0.00 89 994.3
20200226142042 4 275 8.0 20.9 0.00 0.15 0.00 90 994.2
20200226141044 4 272 9.7 19.3 0.00 0.15 0.00 90 994.0
20200226135040 3 256 14.5 19.3 0.00 0.15 0.00 91 993.7
20200226134036 3 257 14.5 22.5 0.00 0.15 0.00 91 993.6
20200226133048 3 270 14.5 20.9 0.00 0.15 0.00 92 993.5
20200226132038 3 260 12.9 24.1 0.00 0.15 0.00 92 993.5
20200226131041 3 251 11.3 20.9 0.00 0.15 0.00 92 993.3
20200226130102 3 241 12.9 24.1 0.00 0.15 0.00 92 993.3
20200226124036 2 272 12.9 24.1 0.00 0.15 0.00 92 993.2